Location: ?????
(37.8459°N, 23.7626°E)
Time: 15:13:40
(UTC+00:00)

Daily predictions for brighter satellites

Satellite Brightness Start Highest point End
(mag) Time Altitude Azimuth Time Altitude Azimuth Time Altitude Azimuth
DELTA 2 R/B (1) 3.8 16:42:45 10° SW 16:48:12 60° SSE 16:53:40 10° ENE
Hubble Space Telescope 2.8 16:48:00 10° SSW 16:50:34 16° SSE 16:53:08 10° SE
Cosmos 1703 Rocket 4.4 16:47:17 10° NNE 16:51:06 28° ENE 16:54:50 10° SE
USA 234 4.2 16:45:48 10° ENE 16:51:06 26° SE 16:56:23 10° S
COSMOS 2428 3.4 16:46:25 10° SSE 16:51:20 31° ESE 16:56:17 10° NE
Cosmos 2263 Rocket 4.4 16:46:38 10° NW 16:51:26 31° WSW 16:56:14 10° SSW
SeaSat 1 3.3 16:48:08 10° NE 16:52:22 28° ESE 16:56:33 10° SSE
Cosmos 1933 Rocket 3.5 16:49:18 10° S 16:53:35 62° E 16:57:56 10° NNE
ATLAS CENTAUR R/B 3.2 16:51:11 10° WSW 16:54:21 27° NW 16:57:32 10° N
CZ-2C R/B 3.2 16:50:31 10° NNE 16:55:26 35° E 17:00:15 10° SSE
Cosmos 1515 3.9 16:52:04 10° N 16:55:53 77° W 16:59:40 10° S
SL-16 R/B 4.2 16:52:03 10° WSW 16:56:58 30° WNW 17:01:55 10° N
Cosmos 968 Rocket 4.5 16:53:06 10° NNW 16:58:13 53° WSW 17:03:19 10° S
Cosmos 2341 Rocket 4.2 16:52:59 10° SSE 16:59:03 53° E 17:05:07 10° NNE
Okean O Rocket 4.0 16:56:35 10° SSW 17:00:18 28° W 17:04:04 10° NW
Cosmos 1862 Rocket 4.1 16:58:05 10° NNW 17:02:32 66° W 17:06:56 10° S
ERS-2 2.2 17:00:52 10° NNE 17:04:28 54° ESE 17:08:01 10° S
FALCON 9 DEB 3.1 17:06:21 10° NW 17:09:46 64° NE 17:12:50 12° ESE
Cosmos 2218 Rocket 4.4 17:05:33 10° SSE 17:11:29 42° E 17:17:26 10° NNE
YAOGAN 1 2.5 17:08:37 10° SSE 17:12:55 79° ENE 17:17:15 10° N
Cosmos 2322 3.7 17:07:42 10° SSW 17:13:24 79° ESE 17:19:08 10° NNE
NOSS 3-2 (A) 3.7 17:11:35 10° S 17:16:34 38° ESE 17:22:04 10° NE
Aureole 2 Rocket 4.1 17:14:29 10° NW 17:16:36 25° WSW 17:18:41 10° SSW
CSL-04 Rocket 3.9 17:13:05 10° SE 17:18:24 51° ENE 17:23:43 10° N
Cosmos 192 4.3 17:15:20 10° SSW 17:20:13 82° ESE 17:25:09 10° NNE
Okean 1-7 3.0 17:16:00 10° N 17:20:18 57° E 17:24:32 10° SSE
Cosmos 1666 2.5 17:18:13 10° S 17:21:55 78° E 17:25:39 10° N
CZ-4B R/B 4.3 17:21:00 10° NNW 17:23:14 18° WNW 17:25:29 10° WSW
SJ-6B 4.3 17:23:05 18° ENE 17:23:31 18° ENE 17:26:17 10° NNE
CSL-04 Debris 4.2 17:19:20 10° SSE 17:24:40 63° ENE 17:30:05 10° N
Cosmos 1844 Rocket 2.7 17:19:23 10° NNW 17:24:58 85° WSW 17:30:33 10° SSE
Meteor 1-11 Rocket 3.8 17:20:07 10° SSE 17:25:36 52° E 17:31:02 10° NNE
SJ 16-02 2.9 17:23:37 10° NNE 17:26:29 17° ENE 17:26:42 17° ENE
HJ-1C 3.2 17:24:22 10° SSE 17:27:39 80° ENE 17:30:58 10° N
Cosmos 2242 Rocket 3.5 17:23:41 10° N 17:28:10 88° E 17:32:35 10° S
CENTAUR R/B 3.0 17:26:27 10° S 17:31:19 32° ESE 17:36:54 10° NE
Cosmos 1238 Rocket 3.5 17:27:45 10° SSE 17:31:45 33° E 17:35:08 10° NNE
SWAS 4.4 17:32:20 10° S 17:36:32 59° ESE 17:40:47 10° NNE
GP-B 3.2 17:33:02 10° S 17:37:28 81° W 17:41:55 10° N
Okean 3 3.8 17:34:49 10° N 17:38:55 43° E 17:42:08 15° SSE
H-2A R/B 3.0 17:35:17 10° S 17:40:35 52° W 17:45:54 10° NNW
Cosmos 2360 Rocket 4.2 17:35:45 10° WSW 17:40:37 30° WNW 17:45:33 10° N
Meteor 1-13 Rocket 4.3 17:34:48 10° N 17:40:41 63° E 17:46:25 10° SSE
Cosmos 1241 Rocket 4.5 17:37:11 10° NNW 17:43:46 70° ENE 17:49:08 15° SE
SL-08 RB Rocket 3.6 17:40:02 10° SSE 17:44:33 85° ENE 17:49:08 10° N
BREEZE-M DEB (TANK) 4.4 17:43:31 10° NNW 17:45:42 17° NNE 17:47:05 15° NE
Cosmos 1536 2.7 17:42:33 10° S 17:46:30 68° E 17:50:28 10° NNE
Cosmos 2237 Rocket 2.8 17:41:42 10° SSE 17:46:44 33° ESE 17:51:47 10° NE
Cosmos 1869 Rocket 3.7 17:44:21 10° S 17:48:41 77° W 17:53:07 10° N
Cosmos 1844 4.1 17:44:04 10° NNW 17:49:46 65° WSW 17:55:21 10° S
Cosmos 1777 Rocket 3.9 17:45:59 10° NNW 17:51:14 82° ENE 17:56:22 10° SSE
Cosmos 2278 Rocket 3.1 17:48:15 10° N 17:53:07 29° ENE 17:53:46 28° ENE
SL-4 R/B 2.2 17:50:08 10° NW 17:53:25 38° NNE 17:53:28 38° NE
Ariane Rocket 3.6 17:52:45 32° E 17:53:27 34° ENE 17:58:01 10° N
Helios 1A Rocket 3.4 17:49:33 10° S 17:53:34 60° W 17:57:33 10° NNW
Lacrosse 4 Rocket 3.0 17:51:11 10° SW 17:55:15 37° WNW 17:59:26 10° N
Abrixas rocket 4.2 17:54:11 10° NNW 17:54:57 14° N 17:54:57 14° N
NOSS 3-2 (C) 3.4 17:52:22 10° S 17:57:31 45° ESE 18:00:29 25° ENE
SME Rocket 3.6 17:51:18 10° NNE 17:57:49 60° E 18:02:15 10° S
ASTEX 1 3.3 17:56:54 10° NNE 18:01:45 62° E 18:06:34 10° S
Cosmos 2333 Rocket 3.4 17:59:00 10° SW 18:04:23 44° WNW 18:09:51 10° N
IRS-1A Rocket 4.5 18:03:30 38° ESE 18:05:03 47° ENE 18:10:21 10° N
CZ-4 R/B 4.2 18:03:42 10° SW 18:06:21 18° W 18:09:03 10° NW
MetOp-A 4.0 18:02:37 16° SSE 18:06:54 75° ENE 18:12:16 10° N
DMSP B5D2-2 4.2 18:01:52 10° N 18:07:05 76° WNW 18:12:15 10° SSW
USA 81 4.2 18:09:31 46° E 18:09:31 46° E 18:14:22 10° NNE
OBJECT-B 3.3 18:13:12 14° N 18:13:12 14° N 18:13:41 10° N
NOSS 0 Rocket 3.8 18:12:11 10° SSW 18:18:20 86° ESE 18:24:31 10° NNE
Meteor 2-20 4.3 18:14:13 10° N 18:20:20 72° E 18:23:07 34° SSE
Cosmos 2219 Rocket 3.8 18:20:05 10° SW 18:25:06 33° WNW 18:30:10 10° N
SeaSat 1 4.0 18:25:23 10° N 18:29:50 35° WNW 18:34:17 10° WSW
Cosmos 1980 3.5 18:25:25 10° SSW 18:31:03 88° ESE 18:36:44 10° NNE
Hubble Space Telescope 2.8 18:27:55 10° SW 18:29:46 19° SSW 18:29:46 19° SSW
USA 234 3.3 18:29:57 22° NE 18:34:26 77° NW 18:40:58 10° SW
DELTA 2 R/B (1) 3.5 18:29:04 10° W 18:34:38 76° N 18:35:01 72° NE
COSMOS 2428 4.3 18:30:24 10° SW 18:35:30 34° WNW 18:40:39 10° N
USA 238 DEB 3.9 18:30:57 10° SW 18:37:24 67° NW 18:44:11 10° NNE
USA 238 3.9 18:31:02 10° SW 18:37:30 68° NW 18:44:17 10° NNE
Cosmos 2221 Rocket 4.1 18:35:29 10° NNW 18:39:06 55° NW 18:39:06 55° NW
Cosmos 1821 Rocket 4.0 18:42:15 10° S 18:48:29 79° W 18:54:41 10° N
Cosmos 2239 Rocket 4.5 18:57:45 64° SSW 18:58:45 79° W 19:05:04 10° N
Cosmos 1000 Rocket 4.5 18:53:57 10° N 18:59:54 79° NNW 18:59:54 79° NNW
Resurs 01 Rocket 4.2 19:08:23 14° N 19:08:23 14° N 19:08:57 10° N
SJ 16-02 3.1 19:01:05 10° NNW 19:03:44 30° WNW 19:03:44 30° WNW
NOSS 3-3 (A) 4.5 19:06:30 10° NW 19:14:19 85° WSW 19:14:37 83° S
NOSS 3-3 (C) 4.5 19:06:35 10° NNW 19:14:25 86° WSW 19:14:42 84° S
CENTAUR R/B 3.5 19:16:13 10° WSW 19:21:41 41° NW 19:25:55 20° NNE
Cosmos 2237 Rocket 3.8 19:25:41 10° WSW 19:30:43 32° WNW 19:35:49 10° N
Cosmos 2278 Rocket 3.8 19:32:03 10° NW 19:35:39 31° WNW 19:35:39 31° WNW
